Weather Roundup
Issued by NWS Springfield, MO

Home | Current Version | Previous Version | Text Only | Print | Product List | Glossary On
Versions: 1 2 3 4 5 6 7 8 9 10 11 12 13 14 15 16 17 18 19 20 21 22 23 24 25 26 27 28 29 30 31 32 33 34 35 36 37 38 39 40 41 42 43 44 45 46 47 48 49 50
184
NZUS99 KSGF 212207
HRRSGF

HOURLY WEATHER
NATIONAL WEATHER SERVICE SPRINGFIELD MO
500 PM CDT MON MAY 21 2018

......SGF CWA......

CITY           SKY/WX    TMP DP  RH WIND       PRES   REMARKS
SPRINGFIELD    MOSUNNY   80  64  58 NW5       30.00F
JOPLIN         SUNNY     79  61  53 NW6       30.01F
WEST PLAINS    MOSUNNY   82  67  60 CALM      30.00F
ROLLA          MOSUNNY   78  66  66 NW5       30.00F
OSAGE BEACH    SUNNY     78  67  68 NW6       30.00F
BRANSON        PTSUNNY   82  64  54 NW8       30.01F

......SURROUNDING SGF CWA......

CITY           SKY/WX    TMP DP  RH WIND       PRES   REMARKS
CHANUTE        SUNNY     77  61  57 VRB5      30.01F
PARSONS        SUNNY     77  62  59 SW3       30.01F
COFFEYVILLE    SUNNY     80  59  48 N6        29.99F
EMPORIA        SUNNY     76  60  57 NW3       30.00F
GROVE OK       SUNNY     81  61  50 NW6       30.01F
SILOAM SPRINGS MOSUNNY   82  67  60 W7        30.01F
HARRISON AR    TSTM      73  69  87 MISG      30.02R
NEAR YELLVILLE CLOUDY    81  68  64 CALM      29.98F

......KANSAS AND MISSOURI......

CITY           SKY/WX    TMP DP  RH WIND       PRES   REMARKS
KANSAS CTY INT PTSUNNY   71  58  63 W3        30.02F
DOWNTOWN KC    SUNNY     72  58  61 NW9       30.00F
COLUMBIA       MOSUNNY   79  65  62 W13       29.99F
SEDALIA        PTSUNNY   75  65  70 MISG      30.01F
ST JOSEPH      SUNNY     72  59  63 CALM      29.99F
ST LOUIS       CLOUDY    80  69  69 CALM      29.98F
SPIRIT OF STL  CLOUDY    80  69  69 CALM      29.96F
KIRKSVILLE     MOSUNNY   74  62  66 W7        29.99F
WICHITA        MOSUNNY   79  58  48 SW10      29.99F
TOPEKA         SUNNY     77  60  55 NW8       29.99F
OLATHE         SUNNY     72  58  61 W7        30.01F

......TENNESSEE......

CITY           SKY/WX    TMP DP  RH WIND       PRES   REMARKS
MEMPHIS        CLOUDY    79  71  76 SE7       30.00F
NASHVILLE      PTSUNNY   86  62  44 S10       30.02F

......ARKANSAS.......

CITY           SKY/WX    TMP DP  RH WIND       PRES   REMARKS
FAYETTEVILLE   MOSUNNY   82  64  54 W6        29.99F
FT SMITH       PTSUNNY   86  66  51 E6        29.95F
LITTLE ROCK    PTSUNNY   82  69  64 SE9       29.97F

......OKLAHOMA.......

CITY           SKY/WX    TMP DP  RH WIND       PRES   REMARKS
TULSA          MOSUNNY   84  62  47 CALM      29.96F
PONCA CITY     SUNNY     81  58  45 VRB5      29.98F
MCALESTER      MOSUNNY   84  66  54 NW5       29.97F
OKLAHOMA CITY  MOSUNNY   80  60  50 VRB3      29.99F

......IOWA............

CITY           SKY/WX    TMP DP  RH WIND       PRES   REMARKS
DES MOINES     MOSUNNY   74  62  66 CALM      29.97F
QUAD CITIES    PTSUNNY   76  65  68 CALM      29.95F

......ILLINOIS........

CITY           SKY/WX    TMP DP  RH WIND       PRES   REMARKS
QUINCY         PTSUNNY   79  63  57 W9        29.96F
CHICAGO        LGT RAIN  63  60  90 NE5       29.99S FOG





USA.gov is the U.S. government's official web portal to all federal, state and local government web resources and services.